KE9LZ Weather Reports


time (UTC)temp
F
wind
direction
speed
knots
gust
knots
rain 1hr
in
rain 24hr
in
rain mn
in
humidity
%
barometer
mb
20260901174004 87 343 4.3 7.8 0.00 0.00 0.00 79 1016.5
20260901172003 84 310 2.6 6.1 0.00 0.00 0.00 84 1016.8
20260901171004 84 281 4.3 8.7 0.00 0.00 0.00 84 1016.7
20260901170003 86 296 4.3 7.0 0.00 0.00 0.00 81 1016.7
20260901165004 85 301 0.9 5.2 0.00 0.00 0.00 83 1016.9
20260901164003 85 6 0.9 6.1 0.00 0.00 0.00 82 1016.9
20260901162004 84 301 1.7 7.8 0.00 0.00 0.00 85 1017.2
20260901161004 83 304 1.7 6.1 0.00 0.00 0.00 85 1017.0
20260901160004 82 194 2.6 5.2 0.00 0.00 0.00 87 1017.2
20260901155003 81 295 1.7 6.1 0.00 0.00 0.00 88 1017.3
20260901153004 80 296 1.7 4.3 0.00 0.00 0.00 90 1017.1
20260901151003 80 254 1.7 5.2 0.00 0.00 0.00 90 1017.0
20260901150003 79 276 0.9 4.3 0.00 0.00 0.00 92 1016.9
20260901145003 79 240 1.7 4.3 0.00 0.00 0.00 92 1016.9
20260901144003 78 300 2.6 5.2 0.00 0.00 0.00 94 1017.1
20260901143003 78 233 0.9 4.3 0.00 0.00 0.00 95 1017.0
20260901142003 77 205 1.7 2.6 0.00 0.00 0.00 96 1016.8
20260901141003 76 170 0.9 1.7 0.00 0.00 0.00 97 1017.0
20260901140003 76 336 1.7 2.6 0.00 0.00 0.00 98 1016.8
20260901135003 75 32 0.9 2.6 0.00 0.00 0.00 99 1016.8
20260901134003 75 279 0.9 4.3 0.00 0.00 0.00 99 1016.7
20260901132003 74 157 0.9 1.7 0.00 0.00 0.00 99 1016.8
20260901131003 74 134 0.9 1.7 0.00 0.00 0.00 99 1017.0
20260901130003 74 253 0.9 4.3 0.00 0.00 0.00 99 1016.8
20260901125003 74 291 0.9 5.2 0.00 0.00 0.00 99 1017.1
20260901124003 74 285 1.7 4.3 0.00 0.00 0.00 99 1017.0
20260901123004 74 3 1.7 2.6 0.00 0.00 0.00 99 1017.0
20260901122003 73 217 0.9 4.3 0.00 0.00 0.00 99 1016.9
20260901120003 73 177 1.7 2.6 0.00 0.00 0.00 99 1016.7
20260901115004 73 124 1.7 2.6 0.00 0.00 0.00 99 1016.5
20260901114003 73 264 1.7 5.2 0.00 0.00 0.00 99 1016.2
20260901113003 73 29 3.5 5.2 0.00 0.00 0.00 99 1016.2
20260901112003 73 311 1.7 4.3 0.00 0.00 0.00 99 1015.9
20260901111003 73 346 0.9 2.6 0.00 0.00 0.00 99 1016.0
20260901110003 73 160 0.9 2.6 0.00 0.00 0.00 99 1015.6
20260901105003 73 258 0.9 2.6 0.00 0.00 0.00 99 1015.6
20260901104003 73 186 0.9 2.6 0.00 0.00 0.00 99 1015.6
20260901103003 73 228 0.9 1.7 0.00 0.00 0.00 99 1015.6
20260901101003 73 120 0.9 1.7 0.00 0.00 0.00 99 1015.6
20260901100003 73 108 0.9 1.7 0.00 0.00 0.00 99 1015.6
20260901095003 73 98 0.9 2.6 0.00 0.03 0.00 99 1015.6
20260901094004 73 138 0.9 1.7 0.00 0.04 0.00 99 1015.7
20260901093004 73 195 0.0 0.9 0.00 0.04 0.00 99 1015.8
20260901092003 74 143 0.9 1.7 0.00 0.05 0.00 99 1015.7
20260901091003 74 179 0.9 1.7 0.00 0.09 0.00 99 1015.6
20260901090003 74 130 0.9 1.7 0.00 0.09 0.00 99 1015.4
20260901085003 74 129 0.9 1.7 0.00 0.09 0.00 99 1015.4
20260901084004 74 193 1.7 4.3 0.00 0.09 0.00 99 1015.4
20260901083004 74 180 1.7 2.6 0.00 0.09 0.00 98 1015.3
20260901081004 74 196 0.9 2.6 0.00 0.09 0.00 98 1015.3
20260901075003 74 191 1.7 2.6 0.00 0.09 0.00 98 1015.3
20260901074003 74 197 0.9 1.7 0.00 0.09 0.00 98 1015.3
20260901072003 75 184 0.9 1.7 0.00 0.09 0.00 97 1015.3
20260901070003 75 128 0.0 2.6 0.00 0.09 0.00 97 1015.1
20260901065003 75 131 0.9 1.7 0.00 0.09 0.00 97 1015.1
20260901064004 75 124 0.0 2.6 0.00 0.09 0.00 96 1015.1
20260901063004 76 167 1.7 2.6 0.00 0.09 0.00 96 1015.0
20260901062003 76 109 0.9 1.7 0.00 0.09 0.00 96 1015.3
20260901061003 76 125 0.0 2.6 0.00 0.10 0.00 95 1015.5
20260901060003 76 176 1.7 2.6 0.00 0.11 0.00 95 1015.3
20260901054004 76 157 0.9 2.6 0.00 0.11 0.00 95 1015.3
20260901053003 77 180 0.0 2.6 0.00 0.11 0.00 94 1015.3
20260901052004 76 153 0.9 4.3 0.00 0.11 0.00 94 1015.1
20260901051006 77 165 0.9 2.6 0.00 0.11 0.00 94 1015.0
20260901050004 77 193 0.0 2.6 0.00 0.11 0.00 93 1015.0
20260901045004 77 164 0.9 4.3 0.00 0.11 0.11 93 1015.3
20260901044004 78 210 1.7 5.2 0.00 0.11 0.11 93 1015.3
20260901043003 78 209 1.7 5.2 0.00 0.11 0.11 92 1015.3
20260901042003 78 200 0.9 4.3 0.00 0.11 0.11 92 1015.3
20260901041003 78 221 1.7 2.6 0.00 0.11 0.11 92 1015.3
20260901040003 79 216 1.7 4.3 0.00 0.11 0.11 92 1015.4
20260901035003 79 188 1.7 5.2 0.00 0.11 0.11 91 1015.3
20260901034004 79 197 1.7 5.2 0.00 0.11 0.11 91 1015.2
20260901033003 79 202 1.7 6.1 0.00 0.11 0.11 90 1015.0
20260901032004 79 160 0.9 4.3 0.00 0.11 0.11 90 1015.3
20260901030004 80 204 2.6 5.2 0.00 0.11 0.11 90 1015.2
20260901025004 80 183 1.7 5.2 0.00 0.11 0.11 89 1015.3
20260901024003 80 189 2.6 5.2 0.00 0.11 0.11 89 1015.1
20260901022004 81 198 0.9 5.2 0.00 0.11 0.11 88 1015.2
20260901021004 81 196 2.6 6.1 0.00 0.11 0.11 87 1015.4
20260901020003 81 219 1.7 7.8 0.00 0.11 0.11 86 1015.4
20260901015003 82 211 4.3 6.1 0.00 0.11 0.11 86 1015.1
20260901014004 82 211 3.5 7.0 0.00 0.11 0.11 85 1015.2
20260901013003 82 222 2.6 7.8 0.00 0.11 0.11 84 1015.0
20260901012004 83 216 2.6 5.2 0.00 0.11 0.11 83 1014.7
20260901010003 83 204 1.7 7.8 0.00 0.11 0.11 82 1014.6
20260901004004 84 205 3.5 6.1 0.00 0.11 0.11 81 1014.3
20260901003004 84 192 2.6 7.0 0.00 0.11 0.11 80 1014.3
20260901002004 85 197 2.6 7.0 0.00 0.11 0.11 79 1014.1
20260901001003 85 181 1.7 4.3 0.00 0.11 0.11 77 1013.9
20260901000004 86 191 1.7 4.3 0.00 0.11 0.11 76 1013.8
20260831235003 86 232 1.7 5.2 0.00 0.11 0.11 75 1013.8
20260831234003 86 187 1.7 4.3 0.00 0.11 0.11 75 1013.6
20260831233004 86 209 2.6 4.3 0.00 0.11 0.11 74 1013.6
20260831232003 87 164 0.9 2.6 0.00 0.11 0.11 74 1013.3
20260831225003 87 199 0.9 6.1 0.00 0.11 0.11 73 1013.3
20260831224005 88 123 1.7 2.6 0.00 0.11 0.11 72 1013.2
20260831223004 88 215 0.9 4.3 0.00 0.11 0.11 71 1013.2
20260831222004 88 258 1.7 5.2 0.00 0.11 0.11 71 1013.4
20260831221004 89 281 3.5 6.1 0.00 0.11 0.11 70 1013.2
20260831220003 89 290 2.6 7.8 0.00 0.11 0.11 70 1013.5
20260831215004 89 286 5.2 7.0 0.00 0.11 0.11 70 1013.5
20260831213003 89 277 1.7 7.8 0.00 0.11 0.11 68 1013.2
20260831212003 89 284 5.2 11.3 0.00 0.11 0.11 68 1013.2
20260831211003 91 236 4.3 7.8 0.00 0.11 0.11 65 1013.1
20260831205004 90 270 3.5 8.7 0.00 0.11 0.11 66 1013.2
20260831204004 90 291 4.3 8.7 0.00 0.11 0.11 67 1013.1
20260831203003 90 215 5.2 12.2 0.00 0.11 0.11 66 1013.3
20260831202003 90 280 1.7 8.7 0.00 0.11 0.11 67 1013.3
20260831201004 89 274 4.3 8.7 0.00 0.11 0.11 68 1013.5
20260831200004 89 234 4.3 12.2 0.00 0.11 0.11 69 1013.3
20260831195003 89 293 5.2 8.7 0.00 0.11 0.11 69 1013.3
20260831194004 88 239 2.6 12.2 0.00 0.11 0.11 68 1013.3
20260831193004 87 236 6.1 11.3 0.00 0.11 0.11 71 1013.3
20260831192004 87 291 7.0 11.3 0.00 0.11 0.11 70 1014.0
20260831191004 87 272 5.2 8.7 0.00 0.11 0.11 70 1013.5
20260831190004 87 277 4.3 6.1 0.00 0.11 0.11 70 1013.5
20260831185004 87 226 4.3 12.2 0.00 0.11 0.11 69 1013.7
20260831184003 87 238 2.6 7.8 0.00 0.11 0.11 68 1013.5
20260831183004 87 256 2.6 11.3 0.00 0.11 0.11 69 1013.5
20260831182004 87 229 5.2 7.8 0.00 0.11 0.11 69 1013.7
20260831181004 86 211 4.3 6.1 0.00 0.11 0.11 69 1013.6
20260831180003 86 247 2.6 10.4 0.00 0.11 0.11 70 1013.9